FW9262 Weather Reports


Display with metric or nautical units.
time (UTC)temp
F
wind
direction
speed
MPH
gust
MPH
rain 1hr
in
rain 24hr
in
rain mn
in
humidity
%
barometer
mb
20220525163825 67 315 2.0 4.0 0.00 0.00 0.00 73 1012.6
20220525163324 68 315 1.0 2.0 0.00 0.00 0.00 72 1012.6
20220525162821 67 258 2.0 3.0 0.00 0.00 0.00 73 1012.6
20220525162321 67 203 2.0 4.0 0.00 0.00 0.00 73 1012.6
20220525161820 67 323 2.0 4.0 0.00 0.00 0.00 72 1012.6
20220525161319 67 340 1.0 4.0 0.00 0.00 0.00 73 1012.6
20220525160817 66 229 1.0 3.0 0.00 0.00 0.00 75 1012.2
20220525160317 66 316 1.0 6.0 0.00 0.00 0.00 76 1012.2
20220525155815 66 286 2.0 4.0 0.00 0.00 0.00 76 1012.6
20220525155313 66 183 3.0 6.0 0.00 0.00 0.00 76 1012.2
20220525154812 66 347 1.0 3.0 0.00 0.00 0.00 75 1012.2
20220525154310 66 347 1.0 4.0 0.00 0.00 0.00 75 1012.2
20220525153809 66 355 1.0 2.0 0.00 0.00 0.00 75 1012.2
20220525153307 66 341 1.0 3.0 0.00 0.00 0.00 76 1012.2
20220525152805 66 286 2.0 3.0 0.00 0.00 0.00 75 1011.9
20220525152303 66 285 2.0 3.0 0.00 0.00 0.00 74 1011.9
20220525151802 66 230 2.0 3.0 0.00 0.00 0.00 73 1011.9
20220525151300 66 313 0.0 1.0 0.00 0.00 0.00 74 1012.2
20220525150759 65 351 0.0 1.0 0.00 0.00 0.00 76 1011.6
20220525150259 64 4 1.0 3.0 0.00 0.00 0.00 77 1011.9
20220525145757 65 304 2.0 2.0 0.00 0.00 0.00 77 1011.9
20220525145256 64 248 2.0 3.0 0.00 0.00 0.00 77 1011.9
20220525144755 64 325 1.0 1.0 0.00 0.00 0.00 77 1011.6
20220525144253 65 311 0.0 2.0 0.00 0.00 0.00 77 1011.6
20220525143751 65 321 0.0 1.0 0.00 0.00 0.00 77 1011.6
20220525143250 64 1 0.0 2.0 0.00 0.00 0.00 78 1011.6
20220525142748 64 338 0.0 2.0 0.00 0.00 0.00 78 1011.6
20220525142248 64 340 0.0 1.0 0.00 0.00 0.00 79 1011.6
20220525141746 64 330 0.0 0.0 0.00 0.00 0.00 79 1011.6
20220525141244 63 314 0.0 1.0 0.00 0.00 0.00 79 1011.6
20220525140744 63 351 0.0 0.0 0.00 0.00 0.00 80 1011.9
20220525140244 63 357 0.0 0.0 0.00 0.00 0.00 82 1011.6
20220525135743 62 350 0.0 0.0 0.00 0.00 0.00 82 1011.6
20220525135242 62 359 0.0 0.0 0.00 0.00 0.00 84 1011.6
20220525134741 61 350 0.0 0.0 0.00 0.00 0.00 85 1011.6
20220525134241 61 345 0.0 0.0 0.00 0.00 0.00 86 1011.6
20220525133740 60 345 0.0 0.0 0.00 0.00 0.00 87 1011.6
20220525133239 60 345 0.0 0.0 0.00 0.00 0.00 87 1011.6
20220525132738 60 343 0.0 0.0 0.00 0.00 0.00 88 1011.2
20220525132237 60 348 0.0 0.0 0.00 0.00 0.00 88 1011.6
20220525131735 59 348 0.0 0.0 0.00 0.00 0.00 88 1011.2
20220525131234 59 348 0.0 0.0 0.00 0.00 0.00 88 1011.6
20220525130733 59 348 0.0 0.0 0.00 0.00 0.00 88 1011.2
20220525130231 59 348 0.0 0.0 0.00 0.00 0.00 88 1011.2
20220525125731 59 349 0.0 0.0 0.00 0.00 0.00 87 1011.6
20220525125230 59 348 0.0 0.0 0.00 0.00 0.00 87 1011.2
20220525124729 60 348 0.0 0.0 0.00 0.00 0.00 87 1011.2
20220525124229 60 348 0.0 0.0 0.00 0.00 0.00 87 1011.2
20220525123729 60 348 0.0 0.0 0.00 0.00 0.00 87 1011.2
20220525123229 60 349 0.0 0.0 0.00 0.00 0.00 86 1011.6
20220525122727 60 348 0.0 0.0 0.00 0.00 0.00 86 1011.2
20220525122226 60 348 0.0 0.0 0.00 0.00 0.00 86 1011.6
20220525121725 60 348 0.0 0.0 0.00 0.00 0.00 86 1011.2
20220525121223 60 356 0.0 0.0 0.00 0.00 0.00 86 1011.6
20220525120723 60 358 0.0 0.0 0.00 0.00 0.00 86 1011.2
20220525120223 60 358 0.0 0.0 0.00 0.00 0.00 86 1011.2
20220525115723 60 358 0.0 0.0 0.00 0.00 0.00 86 1011.6
20220525115222 60 0 0.0 0.0 0.00 0.00 0.00 86 1011.6
20220525114722 61 5 0.0 1.0 0.00 0.00 0.00 85 1011.2
20220525114220 61 348 0.0 0.0 0.00 0.00 0.00 85 1011.2
20220525113718 61 348 0.0 0.0 0.00 0.00 0.00 85 1011.2
20220525113217 61 13 0.0 0.0 0.00 0.00 0.00 85 1011.2
20220525112716 61 6 0.0 2.0 0.00 0.00 0.00 85 1011.2
20220525112217 61 26 0.0 1.0 0.00 0.00 0.00 85 1011.2
20220525111715 61 27 1.0 2.0 0.00 0.00 0.00 85 1011.2
20220525111213 61 9 0.0 1.0 0.00 0.00 0.00 85 1011.2
20220525110713 61 352 0.0 0.0 0.00 0.00 0.00 86 1011.2
20220525110212 61 357 0.0 3.0 0.00 0.00 0.00 86 1011.6
20220525105710 61 22 1.0 2.0 0.00 0.00 0.00 86 1011.2
20220525105209 61 45 0.0 1.0 0.00 0.00 0.00 86 1011.2
20220525104710 60 52 1.0 2.0 0.00 0.00 0.00 86 1011.2
20220525104209 60 17 0.0 3.0 0.00 0.00 0.00 86 1011.2
20220525103708 61 358 0.0 2.0 0.00 0.00 0.00 86 1011.2
20220525103207 61 2 0.0 0.0 0.00 0.00 0.00 86 1011.2
20220525102705 61 3 0.0 0.0 0.00 0.00 0.00 86 1011.2
20220525102203 61 349 0.0 0.0 0.00 0.00 0.00 86 1011.2
20220525101703 61 359 1.0 1.0 0.00 0.00 0.00 86 1011.2
20220525101203 61 348 0.0 0.0 0.00 0.00 0.00 86 1011.2
20220525100701 61 0 0.0 0.0 0.00 0.00 0.00 86 1011.2
20220525100200 61 345 0.0 0.0 0.00 0.00 0.00 86 1011.2
20220525095659 60 0 0.0 0.0 0.00 0.00 0.00 86 1011.2
20220525095158 60 352 0.0 0.0 0.00 0.00 0.00 86 1011.2
20220525094658 60 352 0.0 0.0 0.00 0.00 0.00 86 1011.2
20220525094157 60 343 0.0 0.0 0.00 0.00 0.00 86 1011.2
20220525093656 60 347 0.0 2.0 0.00 0.00 0.00 86 1011.2
20220525093152 60 346 0.0 0.0 0.00 0.00 0.00 86 1011.2
20220525092651 60 349 0.0 0.0 0.00 0.00 0.00 86 1010.9
20220525092152 60 354 0.0 1.0 0.00 0.00 0.00 86 1011.2
20220525091648 61 358 0.0 2.0 0.00 0.00 0.00 86 1011.6
20220525091148 61 354 0.0 0.0 0.00 0.00 0.00 86 1011.6
20220525090647 61 347 0.0 0.0 0.00 0.00 0.00 86 1011.2
20220525090145 61 323 0.0 0.0 0.00 0.00 0.00 86 1011.2
20220525085644 61 342 0.0 0.0 0.00 0.00 0.00 86 1011.6
20220525085145 60 346 0.0 0.0 0.00 0.00 0.00 86 1011.6
20220525084644 60 340 0.0 0.0 0.00 0.00 0.00 86 1011.6
20220525084144 60 347 0.0 1.0 0.00 0.00 0.00 86 1011.6
20220525083643 60 340 0.0 0.0 0.00 0.00 0.00 87 1011.6
20220525083143 60 339 0.0 0.0 0.00 0.00 0.00 87 1011.6
20220525082641 60 338 0.0 0.0 0.00 0.00 0.00 87 1011.6
20220525082139 60 346 0.0 0.0 0.00 0.00 0.00 87 1011.6
20220525081638 60 342 0.0 1.0 0.00 0.00 0.00 87 1011.9
20220525081137 60 17 0.0 1.0 0.00 0.00 0.00 87 1011.6
20220525080635 60 1 0.0 0.0 0.00 0.00 0.00 87 1011.6
20220525080135 60 334 0.0 2.0 0.00 0.00 0.00 87 1011.6
20220525075634 60 325 0.0 0.0 0.00 0.00 0.00 87 1011.6
20220525075134 60 345 0.0 0.0 0.00 0.00 0.00 87 1011.9
20220525074633 60 351 0.0 0.0 0.00 0.00 0.00 87 1011.6
20220525074132 60 0 0.0 2.0 0.00 0.00 0.00 87 1011.6
20220525073631 60 354 1.0 2.0 0.00 0.00 0.00 87 1011.6
20220525073129 60 18 0.0 1.0 0.00 0.00 0.00 87 1011.9
20220525072628 60 7 0.0 0.0 0.00 0.00 0.00 87 1011.9
20220525072126 60 16 0.0 0.0 0.00 0.00 0.00 86 1011.6
20220525071625 60 353 0.0 4.0 0.00 0.00 0.00 86 1011.9
20220525071124 60 1 0.0 0.0 0.00 0.00 0.00 86 1011.9
20220525070623 60 14 0.0 0.0 0.00 0.00 0.00 86 1011.9
20220525070122 60 357 0.0 0.0 0.00 0.00 0.00 86 1011.6
20220525065622 60 341 0.0 0.0 0.00 0.00 0.00 86 1012.2
20220525065121 60 324 0.0 0.0 0.00 0.00 0.00 86 1011.9
20220525064619 61 341 0.0 0.0 0.00 0.00 0.00 86 1011.9
20220525064119 60 345 0.0 0.0 0.00 0.00 0.00 86 1011.9
20220525063619 60 311 0.0 0.0 0.00 0.00 0.00 86 1012.2
20220525063118 60 223 0.0 1.0 0.00 0.00 0.00 86 1011.9
20220525062618 60 335 1.0 2.0 0.00 0.00 0.00 86 1012.2
20220525062118 60 344 0.0 0.0 0.00 0.00 0.00 86 1012.2
20220525061618 60 231 0.0 1.0 0.00 0.00 0.00 86 1011.9
20220525061116 60 331 0.0 0.0 0.00 0.00 0.00 86 1012.2
20220525060613 60 334 0.0 2.0 0.00 0.00 0.00 87 1011.9
20220525060113 60 349 0.0 0.0 0.00 0.00 0.00 87 1011.9
20220525055610 60 332 0.0 0.0 0.00 0.00 0.00 87 1011.9
20220525055107 60 338 0.0 0.0 0.00 0.00 0.00 87 1012.2
20220525054606 60 339 0.0 1.0 0.00 0.00 0.00 87 1012.2
20220525054105 60 335 0.0 0.0 0.00 0.00 0.00 87 1011.9
20220525053604 60 324 0.0 0.0 0.00 0.00 0.00 87 1011.9
20220525053102 60 336 0.0 0.0 0.00 0.00 0.00 87 1011.9
20220525052600 60 331 0.0 0.0 0.00 0.00 0.00 87 1011.9
20220525052059 60 311 0.0 2.0 0.00 0.00 0.00 87 1011.9
20220525051557 60 304 0.0 0.0 0.00 0.00 0.00 87 1011.9
20220525051057 60 30 1.0 2.0 0.00 0.00 0.00 87 1011.9
20220525050556 60 348 1.0 2.0 0.00 0.00 0.00 87 1011.6
20220525050055 60 339 0.0 1.0 0.00 0.00 0.00 87 1011.6
20220525045554 60 341 0.0 0.0 0.00 0.00 0.00 87 1011.6
20220525045053 60 358 0.0 1.0 0.00 0.00 0.00 87 1011.6
20220525044552 60 290 1.0 1.0 0.00 0.00 0.00 87 1011.6
20220525044051 60 340 0.0 1.0 0.00 0.00 0.00 87 1011.6
20220525043550 60 247 0.0 2.0 0.00 0.00 0.00 87 1011.6
20220525043049 60 245 1.0 2.0 0.00 0.00 0.00 87 1011.2
20220525042546 60 233 2.0 2.0 0.00 0.00 0.00 87 1011.2
20220525042046 60 252 2.0 3.0 0.00 0.00 0.00 86 1011.2
20220525041544 60 271 3.0 4.0 0.00 0.00 0.00 86 1011.2
20220525041044 60 336 1.0 2.0 0.00 0.00 0.00 87 1011.2
20220525040542 60 334 1.0 2.0 0.00 0.00 0.00 87 1011.2
20220525040041 60 338 1.0 2.0 0.00 0.00 0.00 87 1011.2
20220525035539 60 347 0.0 2.0 0.00 0.00 0.00 87 1011.2
20220525035038 60 323 1.0 1.0 0.00 0.00 0.00 87 1010.9
20220525034537 60 353 1.0 2.0 0.00 0.00 0.00 87 1010.9
20220525034037 60 344 0.0 2.0 0.00 0.00 0.00 86 1010.9
20220525033537 60 289 1.0 3.0 0.00 0.00 0.00 86 1010.9
20220525033036 61 305 1.0 1.0 0.00 0.00 0.00 85 1010.9
20220525032535 61 344 1.0 2.0 0.00 0.00 0.00 85 1010.9
20220525032034 61 310 1.0 3.0 0.00 0.00 0.00 85 1010.5
20220525031533 61 332 1.0 3.0 0.00 0.00 0.00 85 1010.5
20220525031032 61 293 2.0 2.0 0.00 0.00 0.00 85 1010.5
20220525030530 61 317 1.0 1.0 0.00 0.00 0.00 85 1010.5
20220525030030 61 343 1.0 2.0 0.00 0.00 0.00 85 1010.5
20220525025529 61 290 2.0 3.0 0.00 0.00 0.00 85 1010.5
20220525025028 61 183 1.0 2.0 0.00 0.00 0.00 85 1010.2
20220525024526 61 281 1.0 2.0 0.00 0.00 0.00 85 1010.2
20220525024025 61 316 1.0 3.0 0.00 0.00 0.00 85 1010.2
20220525023526 61 231 2.0 3.0 0.00 0.00 0.00 84 1010.2
20220525023024 61 341 1.0 3.0 0.00 0.00 0.00 84 1010.2
20220525022522 61 297 2.0 3.0 0.00 0.00 0.00 84 1010.2
20220525022020 61 241 2.0 3.0 0.00 0.00 0.00 84 1010.2
20220525021519 61 253 3.0 4.0 0.00 0.00 0.00 83 1010.2
20220525021018 62 333 1.0 2.0 0.00 0.00 0.00 84 1010.2
20220525020516 61 193 2.0 4.0 0.00 0.00 0.00 84 1010.2
20220525020014 62 261 1.0 4.0 0.00 0.00 0.00 82 1009.9
20220525015513 62 329 0.0 2.0 0.00 0.00 0.00 82 1010.2
20220525015011 62 328 1.0 2.0 0.00 0.00 0.00 82 1009.9
20220525014511 62 301 0.0 2.0 0.00 0.00 0.00 82 1009.9
20220525014009 62 326 0.0 4.0 0.00 0.00 0.00 82 1009.9
20220525013509 62 282 1.0 6.0 0.00 0.00 0.00 81 1010.2
20220525013008 62 301 0.0 2.0 0.00 0.00 0.00 81 1009.9
20220525012506 62 275 3.0 4.0 0.00 0.00 0.00 81 1010.2
20220525012006 62 274 2.0 4.0 0.00 0.00 0.00 81 1010.2
20220525011504 62 203 2.0 3.0 0.00 0.00 0.00 81 1009.9
20220525011002 62 278 5.0 7.0 0.00 0.00 0.00 81 1009.9
20220525010501 63 217 3.0 6.0 0.00 0.00 0.00 80 1009.9
20220525010001 63 269 3.0 4.0 0.00 0.00 0.00 79 1009.9
20220525005501 64 260 3.0 4.0 0.00 0.00 0.00 78 1009.9
20220525005000 63 291 1.0 4.0 0.00 0.00 0.00 79 1009.5
20220525004458 63 207 3.0 7.0 0.00 0.00 0.00 81 1009.9
20220525003956 64 259 2.0 3.0 0.00 0.00 0.00 78 1009.9
20220525003454 64 304 1.0 4.0 0.00 0.00 0.00 78 1009.9
20220525002953 64 312 3.0 4.0 0.00 0.00 0.00 78 1009.9
20220525002451 64 251 5.0 7.0 0.00 0.00 0.00 79 1009.9
20220525001949 64 289 4.0 6.0 0.00 0.00 0.00 78 1009.9
20220525001448 64 204 4.0 4.0 0.00 0.00 0.00 77 1009.9
20220525000947 64 291 3.0 6.0 0.00 0.00 0.00 78 1009.9
20220525000446 64 320 3.0 6.0 0.00 0.00 0.00 78 1009.9
20220524235946 65 276 3.0 7.0 0.00 0.00 0.00 76 1009.9
20220524235444 65 278 1.0 3.0 0.00 0.00 0.00 76 1009.9
20220524234943 64 206 3.0 6.0 0.00 0.00 0.00 77 1009.9
20220524234442 65 335 1.0 4.0 0.00 0.00 0.00 76 1009.9
20220524233941 65 318 5.0 7.0 0.00 0.00 0.00 74 1009.9
20220524233440 66 246 4.0 7.0 0.00 0.00 0.00 73 1009.9
20220524232940 66 326 2.0 6.0 0.00 0.00 0.00 74 1009.9
20220524232438 65 258 4.0 6.0 0.00 0.00 0.00 75 1010.2
20220524231938 66 264 4.0 9.0 0.00 0.00 0.00 74 1009.9
20220524231437 65 256 4.0 7.0 0.00 0.00 0.00 75 1009.9
20220524230936 66 270 5.0 7.0 0.00 0.00 0.00 73 1009.9
20220524230436 66 339 2.0 4.0 0.00 0.00 0.00 75 1009.9
20220524225936 65 217 3.0 8.0 0.00 0.00 0.00 75 1009.9
20220524225435 66 276 4.0 4.0 0.00 0.00 0.00 73 1010.2
20220524224933 66 217 3.0 7.0 0.00 0.00 0.00 73 1009.9
20220524224432 66 328 0.0 4.0 0.00 0.00 0.00 73 1009.9
20220524223930 66 287 6.0 8.0 0.00 0.00 0.00 72 1010.2
20220524223429 66 219 3.0 7.0 0.00 0.00 0.00 73 1010.2
20220524222928 66 275 4.0 9.0 0.00 0.00 0.00 73 1010.2
20220524222427 67 142 3.0 7.0 0.00 0.00 0.00 71 1010.2
20220524221925 67 312 0.0 4.0 0.00 0.00 0.00 71 1010.2
20220524221423 67 334 3.0 8.0 0.00 0.00 0.00 71 1010.2
20220524220922 68 215 4.0 8.0 0.00 0.00 0.00 70 1010.5
20220524220420 67 345 0.0 4.0 0.00 0.00 0.00 70 1010.5
20220524215918 67 289 4.0 7.0 0.00 0.00 0.00 70 1010.2
20220524215417 67 307 4.0 9.0 0.00 0.00 0.00 71 1010.5
20220524214917 67 197 4.0 7.0 0.00 0.00 0.00 69 1010.5
20220524214416 67 319 3.0 8.0 0.00 0.00 0.00 71 1010.5
20220524213916 68 203 4.0 10.0 0.00 0.00 0.00 68 1010.9
20220524213414 67 256 3.0 6.0 0.00 0.00 0.00 70 1010.5
20220524212914 68 271 3.0 7.0 0.00 0.00 0.00 69 1010.5
20220524212413 69 264 1.0 6.0 0.00 0.00 0.00 68 1010.5
20220524211912 68 322 1.0 9.0 0.00 0.00 0.00 69 1010.5
20220524211412 68 237 4.0 7.0 0.00 0.00 0.00 67 1010.9
20220524210909 69 219 4.0 7.0 0.00 0.00 0.00 67 1010.9
20220524210409 69 205 5.0 7.0 0.00 0.00 0.00 66 1010.5
20220524205908 69 294 2.0 8.0 0.00 0.00 0.00 68 1010.9
20220524205409 68 4 3.0 7.0 0.00 0.00 0.00 69 1010.9
20220524204907 68 286 4.0 7.0 0.00 0.00 0.00 68 1011.2
20220524204406 68 242 3.0 6.0 0.00 0.00 0.00 67 1010.9
20220524203906 68 333 2.0 4.0 0.00 0.00 0.00 68 1010.9
20220524203406 68 250 2.0 7.0 0.00 0.00 0.00 69 1010.9
20220524202904 68 286 4.0 7.0 0.00 0.00 0.00 68 1011.2
20220524202402 69 293 4.0 7.0 0.00 0.00 0.00 67 1011.2
20220524201901 68 305 2.0 3.0 0.00 0.00 0.00 67 1011.2
20220524201401 67 260 3.0 4.0 0.00 0.00 0.00 69 1010.9
20220524200859 68 284 5.0 7.0 0.00 0.00 0.00 67 1011.2
20220524200357 67 354 4.0 8.0 0.00 0.00 0.00 70 1011.2
20220524195857 68 263 3.0 4.0 0.00 0.00 0.00 68 1011.6
20220524195357 69 212 4.0 6.0 0.00 0.00 0.00 67 1011.2
20220524194857 68 319 3.0 7.0 0.00 0.00 0.00 68 1011.2
20220524194356 69 306 4.0 7.0 0.00 0.00 0.00 66 1011.6
20220524193854 69 289 2.0 4.0 0.00 0.00 0.00 66 1011.6
20220524193353 68 282 2.0 7.0 0.00 0.00 0.00 68 1011.6
20220524192853 67 291 2.0 4.0 0.00 0.00 0.00 69 1011.6
20220524192352 68 187 4.0 7.0 0.00 0.00 0.00 67 1011.6
20220524191852 67 336 0.0 3.0 0.00 0.00 0.00 70 1011.6
20220524191352 67 275 3.0 6.0 0.00 0.00 0.00 69 1011.6
20220524190851 68 266 4.0 8.0 0.00 0.00 0.00 68 1011.6
20220524190350 67 218 3.0 7.0 0.00 0.00 0.00 70 1011.6
20220524185849 67 309 5.0 8.0 0.00 0.00 0.00 70 1011.6
20220524185347 67 276 3.0 7.0 0.00 0.00 0.00 70 1011.9
20220524184847 67 259 4.0 7.0 0.00 0.00 0.00 69 1011.6
20220524184347 66 285 1.0 7.0 0.00 0.00 0.00 72 1011.6
20220524183846 68 248 4.0 6.0 0.00 0.00 0.00 69 1011.6
20220524183344 68 271 3.0 7.0 0.00 0.00 0.00 67 1011.6
20220524182843 68 267 2.0 7.0 0.00 0.00 0.00 69 1011.9
20220524182341 67 187 5.0 6.0 0.00 0.00 0.00 69 1011.6
20220524181841 67 271 4.0 4.0 0.00 0.00 0.00 69 1011.6
20220524181341 68 304 3.0 6.0 0.00 0.00 0.00 67 1011.6
20220524180841 68 213 4.0 6.0 0.00 0.00 0.00 68 1011.6
20220524180339 68 274 2.0 4.0 0.00 0.00 0.00 68 1011.9
20220524175838 68 233 3.0 6.0 0.00 0.00 0.00 69 1011.6
20220524175336 68 201 2.0 3.0 0.00 0.00 0.00 68 1011.6
20220524174834 67 301 2.0 6.0 0.00 0.00 0.00 69 1011.6
20220524174333 67 18 2.0 6.0 0.00 0.00 0.00 69 1011.6
20220524173832 67 258 2.0 3.0 0.00 0.00 0.00 69 1011.6
20220524173333 67 301 1.0 3.0 0.00 0.00 0.00 71 1011.6
20220524172831 67 221 3.0 4.0 0.00 0.00 0.00 68 1011.6
20220524172330 66 275 2.0 4.0 0.00 0.00 0.00 70 1011.6
20220524171830 66 268 2.0 3.0 0.00 0.00 0.00 70 1011.6
20220524171330 67 305 2.0 3.0 0.00 0.00 0.00 70 1011.2
20220524170830 67 225 3.0 4.0 0.00 0.00 0.00 70 1011.6
20220524170329 67 329 0.0 2.0 0.00 0.00 0.00 71 1011.9
20220524165827 66 349 0.0 1.0 0.00 0.00 0.00 73 1011.6
20220524165326 65 310 2.0 6.0 0.00 0.00 0.00 73 1011.6
20220524164824 66 329 1.0 3.0 0.00 0.00 0.00 72 1011.6
20220524164323 65 330 0.0 0.0 0.00 0.00 0.00 73 1011.9